Time,TemperatureF,DewpointF,PressureIn,WindDirection,WindDirectionDegrees,WindSpeedMPH,WindSpeedGustMPH,Humidity,HourlyPrecipIn,Conditions,Clouds,dailyrainin,SoftwareType,DateUTC
2013-02-01 00:02:00,2.0,0.0,29.18,NW,314,6.0,-999.0,92,18.79,,,-99.99,,2013-02-01 06:02:00,
2013-02-01 00:11:00,2.0,0.0,29.17,WNW,302,4.0,-999.0,92,18.79,,,-99.99,,2013-02-01 06:11:00,
2013-02-01 00:22:00,2.0,0.0,29.17,WNW,302,4.0,-999.0,92,18.79,,,-99.99,,2013-02-01 06:22:00,
2013-02-01 00:32:00,2.0,0.0,29.17,WNW,302,4.0,-999.0,92,18.79,,,-99.99,,2013-02-01 06:32:00,
2013-02-01 00:42:00,2.0,0.0,29.17,WNW,302,4.0,-999.0,92,18.79,,,-99.99,,2013-02-01 06:42:00,
2013-02-01 00:52:00,1.0,-1.0,29.18,WSW,255,0.0,-999.0,93,18.79,,,-99.99,,2013-02-01 06:52:00,
2013-02-01 01:01:00,1.0,-1.0,29.18,WSW,255,0.0,-999.0,93,18.79,,,-99.99,,2013-02-01 07:01:00,
2013-02-01 01:12:00,1.0,-1.0,29.18,WSW,249,3.0,-999.0,93,18.79,,,-99.99,,2013-02-01 07:12:00,
2013-02-01 01:22:00,1.0,-1.0,29.18,WSW,249,3.0,-999.0,93,18.79,,,-99.99,,2013-02-01 07:22:00,
2013-02-01 01:32:00,1.0,-1.0,29.18,WSW,249,3.0,-999.0,93,18.79,,,-99.99,,2013-02-01 07:32:00,
2013-02-01 01:42:00,1.0,-1.0,29.18,WSW,249,3.0,-999.0,93,18.79,,,-99.99,,2013-02-01 07:42:00,
2013-02-01 01:52:00,1.0,0.0,29.16,WSW,245,0.0,-999.0,94,18.79,,,-99.99,,2013-02-01 07:52:00,
2013-02-01 02:01:00,1.0,0.0,29.16,WSW,245,0.0,-999.0,94,18.79,,,-99.99,,2013-02-01 08:01:00,
2013-02-01 02:11:00,1.0,0.0,29.16,WSW,245,0.0,-999.0,94,18.79,,,-99.99,,2013-02-01 08:11:00,
2013-02-01 02:21:00,1.0,0.0,29.14,WSW,245,0.0,-999.0,94,18.79,,,-99.99,,2013-02-01 08:21:00,
2013-02-01 02:32:00,1.0,0.0,29.14,WSW,245,0.0,-999.0,94,18.79,,,-99.99,,2013-02-01 08:32:00,
2013-02-01 02:42:00,1.0,0.0,29.14,WSW,245,0.0,-999.0,94,18.79,,,-99.99,,2013-02-01 08:42:00,
2013-02-01 02:52:00,0.0,-1.0,29.14,WSW,245,0.0,-999.0,94,18.79,,,-99.99,,2013-02-01 08:52:00,
2013-02-01 03:01:00,0.0,-1.0,29.14,WSW,245,0.0,-999.0,94,18.79,,,-99.99,,2013-02-01 09:01:00,
2013-02-01 03:11:00,0.0,-1.0,29.14,WSW,245,0.0,-999.0,94,18.79,,,-99.99,,2013-02-01 09:11:00,
2013-02-01 03:21:00,0.0,-1.0,29.12,South,170,0.0,-999.0,95,18.79,,,-99.99,,2013-02-01 09:21:00,
2013-02-01 03:32:00,0.0,-1.0,29.12,South,170,0.0,-999.0,95,18.79,,,-99.99,,2013-02-01 09:32:00,
2013-02-01 03:42:00,0.0,-1.0,29.12,South,170,0.0,-999.0,95,18.79,,,-99.99,,2013-02-01 09:42:00,
2013-02-01 03:52:00,0.0,-1.0,29.11,South,170,0.0,-999.0,95,18.79,,,-99.99,,2013-02-01 09:52:00,
2013-02-01 04:01:00,0.0,-1.0,29.11,South,170,0.0,-999.0,95,18.79,,,-99.99,,2013-02-01 10:01:00,
2013-02-01 04:11:00,0.0,-1.0,29.11,South,170,0.0,-999.0,95,18.79,,,-99.99,,2013-02-01 10:11:00,
2013-02-01 04:21:00,1.0,0.0,29.13,WSW,248,5.0,-999.0,96,18.79,,,-99.99,,2013-02-01 10:21:00,
2013-02-01 04:32:00,1.0,0.0,29.13,WSW,248,5.0,-999.0,96,18.79,,,-99.99,,2013-02-01 10:32:00,
2013-02-01 04:43:00,1.0,0.0,29.13,SW,221,7.0,-999.0,96,18.79,,,-99.99,,2013-02-01 10:43:00,
2013-02-01 04:53:00,1.0,0.0,29.13,SW,221,7.0,-999.0,96,18.79,,,-99.99,,2013-02-01 10:53:00,
2013-02-01 05:01:00,1.0,0.0,29.13,SW,221,7.0,-999.0,96,18.79,,,-99.99,,2013-02-01 11:01:00,
2013-02-01 05:11:00,1.0,0.0,29.13,SW,221,7.0,-999.0,96,18.79,,,-99.99,,2013-02-01 11:11:00,
2013-02-01 05:22:00,2.0,1.0,29.10,SSW,212,8.0,-999.0,96,18.79,,,-99.99,,2013-02-01 11:22:00,
2013-02-01 05:32:00,2.0,1.0,29.10,SSW,212,8.0,-999.0,96,18.79,,,-99.99,,2013-02-01 11:32:00,
2013-02-01 05:42:00,2.0,1.0,29.10,SSW,212,8.0,-999.0,96,18.79,,,-99.99,,2013-02-01 11:42:00,
2013-02-01 05:53:00,3.0,2.0,29.12,SW,222,6.0,-999.0,96,18.79,,,-99.99,,2013-02-01 11:53:00,
2013-02-01 06:02:00,3.0,2.0,29.12,SW,222,6.0,-999.0,96,18.79,,,-99.99,,2013-02-01 12:02:00,
2013-02-01 06:12:00,3.0,2.0,29.12,SW,222,6.0,-999.0,96,18.79,,,-99.99,,2013-02-01 12:12:00,
2013-02-01 06:22:00,4.0,3.0,29.10,South,190,8.0,-999.0,95,18.79,,,-99.99,,2013-02-01 12:22:00,
2013-02-01 06:32:00,4.0,3.0,29.10,South,190,8.0,-999.0,95,18.79,,,-99.99,,2013-02-01 12:32:00,
2013-02-01 06:42:00,4.0,3.0,29.10,South,190,8.0,-999.0,95,18.79,,,-99.99,,2013-02-01 12:42:00,
2013-02-01 06:52:00,4.0,3.0,29.10,SW,229,5.0,-999.0,95,18.79,,,-99.99,,2013-02-01 12:52:00,
2013-02-01 07:02:00,4.0,3.0,29.10,SW,229,5.0,-999.0,95,18.79,,,-99.99,,2013-02-01 13:02:00,
2013-02-01 07:11:00,4.0,3.0,29.10,SW,229,5.0,-999.0,95,18.79,,,-99.99,,2013-02-01 13:11:00,
2013-02-01 07:22:00,5.0,4.0,29.09,South,176,7.0,-999.0,94,18.79,,,-99.99,,2013-02-01 13:22:00,
2013-02-01 07:33:00,5.0,4.0,29.09,South,176,7.0,-999.0,94,18.79,,,-99.99,,2013-02-01 13:33:00,
2013-02-01 07:42:00,5.0,4.0,29.09,South,176,7.0,-999.0,94,18.79,,,-99.99,,2013-02-01 13:42:00,
2013-02-01 07:53:00,5.0,4.0,29.08,SSE,158,8.0,-999.0,94,18.79,,,-99.99,,2013-02-01 13:53:00,
2013-02-01 08:03:00,5.0,4.0,29.08,SSE,158,8.0,-999.0,94,18.79,,,-99.99,,2013-02-01 14:03:00,
2013-02-01 08:11:00,6.0,5.0,29.06,South,187,7.0,-999.0,94,18.79,,,-99.99,,2013-02-01 14:11:00,
2013-02-01 08:21:00,6.0,5.0,29.06,South,187,7.0,-999.0,94,18.79,,,-99.99,,2013-02-01 14:21:00,
2013-02-01 08:32:00,6.0,5.0,29.06,South,187,7.0,-999.0,94,18.79,,,-99.99,,2013-02-01 14:32:00,
2013-02-01 08:42:00,6.0,5.0,29.07,South,188,8.0,-999.0,94,18.79,,,-99.99,,2013-02-01 14:42:00,
2013-02-01 08:53:00,6.0,5.0,29.07,South,188,8.0,-999.0,94,18.79,,,-99.99,,2013-02-01 14:53:00,
2013-02-01 09:02:00,6.0,5.0,29.07,South,188,8.0,-999.0,94,18.79,,,-99.99,,2013-02-01 15:02:00,
2013-02-01 09:12:00,7.0,5.0,29.05,SSE,167,13.0,-999.0,92,18.79,,,-99.99,,2013-02-01 15:12:00,
2013-02-01 09:21:00,7.0,5.0,29.05,SSE,167,13.0,-999.0,92,18.79,,,-99.99,,2013-02-01 15:21:00,
2013-02-01 09:33:00,7.0,5.0,29.05,SSE,167,13.0,-999.0,92,18.79,,,-99.99,,2013-02-01 15:33:00,
2013-02-01 09:42:00,7.0,5.0,29.05,SSE,167,13.0,-999.0,92,18.79,,,-99.99,,2013-02-01 15:42:00,
2013-02-01 09:52:00,7.0,5.0,29.05,South,169,12.0,-999.0,92,18.79,,,-99.99,,2013-02-01 15:52:00,
2013-02-01 10:02:00,7.0,5.0,29.05,South,169,12.0,-999.0,92,18.79,,,-99.99,,2013-02-01 16:02:00,
2013-02-01 10:11:00,9.0,7.0,29.03,South,186,13.0,-999.0,91,18.79,,,-99.99,,2013-02-01 16:11:00,
2013-02-01 10:22:00,9.0,7.0,29.03,South,186,13.0,-999.0,91,18.79,,,-99.99,,2013-02-01 16:22:00,
2013-02-01 10:33:00,9.0,7.0,29.03,South,186,13.0,-999.0,91,18.79,,,-99.99,,2013-02-01 16:33:00,
2013-02-01 10:43:00,8.0,6.0,29.03,South,173,13.0,-999.0,91,18.79,,,-99.99,,2013-02-01 16:43:00,
2013-02-01 10:52:00,8.0,6.0,29.03,South,173,13.0,-999.0,91,18.79,,,-99.99,,2013-02-01 16:52:00,
2013-02-01 11:02:00,8.0,6.0,29.03,South,173,13.0,-999.0,91,18.79,,,-99.99,,2013-02-01 17:02:00,
2013-02-01 11:12:00,10.0,8.0,29.00,SSE,162,13.0,-999.0,92,18.79,,,-99.99,,2013-02-01 17:12:00,
2013-02-01 11:22:00,10.0,8.0,29.00,SSE,162,13.0,-999.0,92,18.79,,,-99.99,,2013-02-01 17:22:00,
2013-02-01 11:32:00,10.0,8.0,29.00,SSE,162,13.0,-999.0,92,18.79,,,-99.99,,2013-02-01 17:32:00,
2013-02-01 11:42:00,10.0,8.0,29.00,SSE,162,13.0,-999.0,92,18.79,,,-99.99,,2013-02-01 17:42:00,
2013-02-01 11:53:00,12.0,10.0,28.99,SSE,167,10.0,-999.0,92,18.79,,,-99.99,,2013-02-01 17:53:00,
2013-02-01 12:02:00,12.0,10.0,28.99,SSE,167,10.0,-999.0,92,18.79,,,-99.99,,2013-02-01 18:02:00,
2013-02-01 12:12:00,12.0,10.0,28.99,SSE,167,10.0,-999.0,92,18.79,,,-99.99,,2013-02-01 18:12:00,
2013-02-01 12:22:00,15.0,13.0,28.97,South,169,9.0,-999.0,92,18.79,,,-99.99,,2013-02-01 18:22:00,
2013-02-01 12:53:00,15.0,13.0,28.95,South,176,13.0,-999.0,92,18.79,,,-99.99,,2013-02-01 18:53:00,
2013-02-01 13:02:00,15.0,13.0,28.95,South,176,13.0,-999.0,92,18.79,,,-99.99,,2013-02-01 19:02:00,
2013-02-01 13:12:00,15.0,13.0,28.95,South,176,13.0,-999.0,92,18.79,,,-99.99,,2013-02-01 19:12:00,
2013-02-01 13:21:00,18.0,16.0,28.90,South,188,10.0,-999.0,93,18.79,,,-99.99,,2013-02-01 19:21:00,
2013-02-01 13:42:00,18.0,16.0,28.90,South,188,10.0,-999.0,93,18.79,,,-99.99,,2013-02-01 19:42:00,
2013-02-01 13:52:00,20.0,18.0,28.89,South,179,16.0,-999.0,93,18.79,,,-99.99,,2013-02-01 19:52:00,
2013-02-01 14:02:00,20.0,18.0,28.89,South,179,16.0,-999.0,93,18.79,,,-99.99,,2013-02-01 20:02:00,
2013-02-01 14:11:00,25.0,23.0,28.87,SW,225,12.0,-999.0,93,18.79,,,-99.99,,2013-02-01 20:11:00,
2013-02-01 14:21:00,25.0,23.0,28.87,SW,225,12.0,-999.0,93,18.79,,,-99.99,,2013-02-01 20:21:00,
2013-02-01 14:42:00,25.0,23.0,28.87,SW,217,9.0,-999.0,92,18.79,,,-99.99,,2013-02-01 20:42:00,
2013-02-01 14:52:00,25.0,23.0,28.87,SW,217,9.0,-999.0,92,18.79,,,-99.99,,2013-02-01 20:52:00,
2013-02-01 15:02:00,25.0,23.0,28.87,SW,217,9.0,-999.0,92,18.79,,,-99.99,,2013-02-01 21:02:00,
2013-02-01 15:12:00,25.0,23.0,28.87,SW,217,9.0,-999.0,92,18.79,,,-99.99,,2013-02-01 21:12:00,
2013-02-01 15:21:00,27.0,25.0,28.85,South,186,14.0,-999.0,92,18.79,,,-99.99,,2013-02-01 21:21:00,
2013-02-01 15:32:00,27.0,25.0,28.85,South,186,14.0,-999.0,92,18.79,,,-99.99,,2013-02-01 21:32:00,
2013-02-01 15:42:00,27.0,25.0,28.85,South,186,14.0,-999.0,92,18.79,,,-99.99,,2013-02-01 21:42:00,
2013-02-01 15:52:00,27.0,25.0,28.85,SSW,204,13.0,-999.0,92,18.79,,,-99.99,,2013-02-01 21:52:00,
2013-02-01 16:02:00,27.0,25.0,28.85,SSW,204,13.0,-999.0,92,18.79,,,-99.99,,2013-02-01 22:02:00,
2013-02-01 16:11:00,27.0,25.0,28.84,SSW,203,7.0,-999.0,92,18.79,,,-99.99,,2013-02-01 22:11:00,
2013-02-01 16:21:00,27.0,25.0,28.84,SSW,203,7.0,-999.0,92,18.79,,,-99.99,,2013-02-01 22:21:00,
2013-02-01 16:32:00,27.0,25.0,28.84,SSW,203,7.0,-999.0,92,18.79,,,-99.99,,2013-02-01 22:32:00,
2013-02-01 16:42:00,27.0,25.0,28.84,SSW,203,7.0,-999.0,92,18.79,,,-99.99,,2013-02-01 22:42:00,
2013-02-01 16:52:00,27.0,25.0,28.82,SW,214,9.0,-999.0,92,18.79,,,-99.99,,2013-02-01 22:52:00,
2013-02-01 17:01:00,27.0,25.0,28.82,SW,214,9.0,-999.0,92,18.79,,,-99.99,,2013-02-01 23:01:00,
2013-02-01 17:11:00,28.0,26.0,28.82,SSW,205,11.0,-999.0,92,18.79,,,-99.99,,2013-02-01 23:11:00,
2013-02-01 17:21:00,28.0,26.0,28.82,SSW,205,11.0,-999.0,92,18.79,,,-99.99,,2013-02-01 23:21:00,
2013-02-01 17:32:00,28.0,26.0,28.82,SSW,205,11.0,-999.0,92,18.79,,,-99.99,,2013-02-01 23:32:00,
2013-02-01 17:42:00,28.0,26.0,28.82,SSW,205,11.0,-999.0,92,18.79,,,-99.99,,2013-02-01 23:42:00,
2013-02-01 17:52:00,27.0,25.0,28.82,SSW,210,10.0,-999.0,91,18.79,,,-99.99,,2013-02-01 23:52:00,
2013-02-01 18:02:00,27.0,25.0,28.82,SSW,210,10.0,-999.0,91,18.79,,,-99.99,,2013-02-02 00:02:00,
2013-02-01 18:11:00,27.0,25.0,28.82,SSW,210,10.0,-999.0,91,18.79,,,-99.99,,2013-02-02 00:11:00,
2013-02-01 18:21:00,27.0,25.0,28.83,SSW,205,12.0,-999.0,91,18.79,,,-99.99,,2013-02-02 00:21:00,
2013-02-01 18:32:00,27.0,25.0,28.83,SSW,205,12.0,-999.0,91,18.79,,,-99.99,,2013-02-02 00:32:00,
2013-02-01 18:42:00,27.0,25.0,28.83,SSW,205,12.0,-999.0,91,18.79,,,-99.99,,2013-02-02 00:42:00,
2013-02-01 18:52:00,27.0,25.0,28.83,SW,217,10.0,-999.0,92,18.79,,,-99.99,,2013-02-02 00:52:00,
2013-02-01 19:02:00,27.0,25.0,28.83,SW,217,10.0,-999.0,92,18.79,,,-99.99,,2013-02-02 01:02:00,
2013-02-01 19:11:00,27.0,25.0,28.83,SW,217,10.0,-999.0,92,18.79,,,-99.99,,2013-02-02 01:11:00,
2013-02-01 19:21:00,26.0,24.0,28.82,SW,217,7.0,-999.0,92,18.79,,,-99.99,,2013-02-02 01:21:00,
2013-02-01 19:32:00,26.0,24.0,28.82,SW,217,7.0,-999.0,92,18.79,,,-99.99,,2013-02-02 01:32:00,
2013-02-01 19:42:00,26.0,24.0,28.82,SW,217,7.0,-999.0,92,18.79,,,-99.99,,2013-02-02 01:42:00,
2013-02-01 19:52:00,26.0,24.0,28.82,SSW,197,9.0,-999.0,93,18.79,,,-99.99,,2013-02-02 01:52:00,
2013-02-01 20:01:00,26.0,24.0,28.82,SSW,197,9.0,-999.0,93,18.79,,,-99.99,,2013-02-02 02:01:00,
2013-02-01 20:11:00,26.0,24.0,28.82,SSW,197,9.0,-999.0,93,18.79,,,-99.99,,2013-02-02 02:11:00,
2013-02-01 20:21:00,26.0,24.0,28.81,SSW,205,12.0,-999.0,93,18.79,,,-99.99,,2013-02-02 02:21:00,
2013-02-01 20:32:00,26.0,24.0,28.81,SSW,205,12.0,-999.0,93,18.79,,,-99.99,,2013-02-02 02:32:00,
2013-02-01 20:42:00,26.0,24.0,28.81,SSW,205,12.0,-999.0,93,18.79,,,-99.99,,2013-02-02 02:42:00,
2013-02-01 20:52:00,27.0,25.0,28.82,SSW,211,8.0,-999.0,93,18.79,,,-99.99,,2013-02-02 02:52:00,
2013-02-01 21:02:00,27.0,25.0,28.82,SSW,211,8.0,-999.0,93,18.79,,,-99.99,,2013-02-02 03:02:00,
2013-02-01 21:11:00,27.0,25.0,28.82,SW,222,8.0,-999.0,92,18.79,,,-99.99,,2013-02-02 03:11:00,
2013-02-01 21:21:00,27.0,25.0,28.82,SW,222,8.0,-999.0,92,18.79,,,-99.99,,2013-02-02 03:21:00,
2013-02-01 21:32:00,27.0,25.0,28.82,SW,222,8.0,-999.0,92,18.79,,,-99.99,,2013-02-02 03:32:00,
2013-02-01 21:42:00,26.0,24.0,28.82,SW,214,9.0,-999.0,92,18.79,,,-99.99,,2013-02-02 03:42:00,
2013-02-01 21:52:00,26.0,24.0,28.82,SW,214,9.0,-999.0,92,18.79,,,-99.99,,2013-02-02 03:52:00,
2013-02-01 22:01:00,26.0,24.0,28.82,SW,214,9.0,-999.0,92,18.79,,,-99.99,,2013-02-02 04:01:00,
2013-02-01 22:11:00,26.0,24.0,28.82,SW,214,9.0,-999.0,92,18.79,,,-99.99,,2013-02-02 04:11:00,
2013-02-01 22:21:00,26.0,24.0,28.84,SW,229,4.0,-999.0,93,18.79,,,-99.99,,2013-02-02 04:21:00,
2013-02-01 22:32:00,26.0,24.0,28.84,SW,229,4.0,-999.0,93,18.79,,,-99.99,,2013-02-02 04:32:00,
2013-02-01 22:42:00,26.0,24.0,28.84,SW,229,4.0,-999.0,93,18.79,,,-99.99,,2013-02-02 04:42:00,
2013-02-01 22:52:00,26.0,24.0,28.84,South,180,0.0,-999.0,93,18.79,,,-99.99,,2013-02-02 04:52:00,
2013-02-01 23:03:00,26.0,24.0,28.84,South,180,0.0,-999.0,93,18.79,,,-99.99,,2013-02-02 05:03:00,
2013-02-01 23:12:00,26.0,24.0,28.84,South,180,0.0,-999.0,93,18.79,,,-99.99,,2013-02-02 05:12:00,
2013-02-01 23:22:00,27.0,26.0,28.83,SW,228,7.0,-999.0,94,18.79,,,-99.99,,2013-02-02 05:22:00,
2013-02-01 23:33:00,27.0,26.0,28.83,SW,228,7.0,-999.0,94,18.79,,,-99.99,,2013-02-02 05:33:00,
2013-02-01 23:42:00,27.0,26.0,28.83,SW,228,7.0,-999.0,94,18.79,,,-99.99,,2013-02-02 05:42:00,
2013-02-01 23:52:00,27.0,26.0,28.83,WSW,238,0.0,-999.0,94,18.79,,,-99.99,,2013-02-02 05:52:00,